Flag for U.S.A. Weather past 2 weeks in Fullerton, California, U.S.A.

Now
62 °F

Light rain. Mostly cloudy.


Feels Like: 62 °F
Forecast: 55 / 67 °F
Wind: 16 mph from West

Location: Fullerton Municipal Airport

Current Time: Apr 25, 2015 at 4:41:43 PM

Latest Report: Apr 25, 2015 at 3:53 PM


Visibility: 10 mi

Pressure: 29.88 "Hg

Humidity: 80%

Dew point: 56 °F

Location of FullertonLocation

Historic Weather in Fullerton — Graph

°F

Fullerton temperature yesterday

Maximum temperature yesterday: 66 °F (at 1:53 PM)
Minimum temperature yesterday: 58 °F (at 5:53 AM)
Average temperature yesterday: 62 °F

Past Weeks' High & Low Weather Summary

 TemperatureHumidityPressure
High85 °F (Apr 15, 2:53 PM)84% (Apr 12, 10:53 PM)30.09 "Hg (Apr 12, 10:53 PM)
Low53 °F (Apr 11, 5:53 AM)5% (Apr 16, 11:53 AM)29.82 "Hg (Apr 20, 5:53 PM)
Average66 °F53%29.94 "Hg
* Reported Apr 10 2:53 PM — Apr 25 2:53 PM, Fullerton, Weather by CustomWeather, © 2015

Note: Actual official high and low records may vary slightly from our data, if they occured in-between our weather recording intervals... More about our weather records

Advertising

Fullerton weather history for previous 24 hours

 ConditionsComfort  
Time TempWeatherWind HumidityBarometerVisibility
2:53 PM
Sat, Apr 25
62 °FLight rain. Cloudy.9 mph80%29.92 "Hg5 mi
1:53 PM65 °FMostly cloudy.9 mph61%29.94 "Hg10 mi
1:03 PM65 °FMostly cloudy.9 mph59%29.96 "Hg10 mi
12:53 PM65 °FMostly cloudy.13 mph56%29.95 "Hg10 mi
11:53 AM66 °FPartly sunny.13 mph52%29.97 "Hg10 mi
10:53 AM63 °FMostly cloudy.8 mph63%29.98 "Hg10 mi
9:53 AM64 °FPartly sunny.7 mph61%29.98 "Hg10 mi
8:53 AM62 °FOvercast.5 mph67%29.98 "Hg10 mi
7:53 AM61 °FOvercast.No wind67%29.98 "Hg10 mi
6:53 AM60 °FOvercast.No wind69%29.96 "Hg10 mi
5:53 AM60 °FOvercast.No wind69%29.97 "Hg10 mi
4:53 AM60 °FOvercast.3 mph67%29.97 "Hg10 mi
4:01 AM60 °FOvercast.3 mph67%29.97 "Hg10 mi
2:53 AM60 °FMostly cloudy.3 mph75%29.97 "Hg10 mi
1:53 AM60 °FOvercast.3 mph72%29.98 "Hg10 mi
12:53 AM61 °FOvercast.No wind70%29.99 "Hg10 mi
11:53 PM
Fri, Apr 24
61 °FMostly cloudy.No wind70%29.99 "Hg10 mi
10:53 PM62 °FMostly cloudy.5 mph67%30.00 "Hg10 mi
9:53 PM62 °FMostly cloudy.No wind65%30.00 "Hg10 mi
8:53 PM62 °FOvercast.6 mph67%29.99 "Hg10 mi
7:53 PM63 °FOvercast.5 mph63%29.97 "Hg10 mi
6:53 PM63 °FOvercast.5 mph63%29.98 "Hg10 mi
5:53 PM63 °FOvercast.6 mph63%29.98 "Hg10 mi
Weather by CustomWeather, © 2015

See weather overviewHow to use our weather pages